Location: Harwich
(41.7160°N, 69.9939°W)
Time: 02:52:22
(UTC+02:00)

AO-73 - Pass Details

Date: 20 September 2024
Orbit: 548 x 615 km, 97.7° (Epoch: 10 October)

Event Time Altitude Azimuth Distance (km) Brightness Sun altitude
Rises 09:51:06 0° 12° (NNE) 2,786 ? -28.4°
Reaches altitude 10° 09:53:16 10° 12° (NNE) 1,872 ? -28.0°
Enters shadow 09:55:28 31° 11° (N) 994 ? -27.7°
